[[{"header":{"parameterUnit":"m.s-1","parameterCategory":1,"la1":30.2991,"la2":30.254,"lo1":-89.0895,"lo2":-89.0444,"dy":0.0017,"dx":0.0017,"nx":28,"ny":28,"refTime":"2025-04-23T03:00:00:Z","depth":0,"parameterNumber":2,"parameterNumberName":"U-component_of_WINDS"},"data":[0,0,0,0,0,0,0,0,0,0,0,0,0,0,0,0,0,0,0,0,0,0,0,0,0,0,0,0,0,0,0,0,0,0,0,0,0,0,0,0,0,0,0,0,0,0,0,0,0,0,0,0,0,0,0,0,0,0,-1.3093,-1.3093,0,-1.3141,-1.3141,-1.3142,-1.3129,-1.3128,-1.3127,-1.3126,-1.3178,-1.318,-1.3183,0,0,0,0,0,0,0,0,0,0,0,0,0,-1.2991,-1.2993,-1.3092,-1.3093,-1.3094,-1.3141,-1.3141,-1.3142,-1.3129,-1.3128,-1.3127,-1.3126,-1.3177,-1.318,-1.3183,0,0,0,0,0,0,0,0,0,0,0,0,0,-1.3037,-1.2994,-1.3092,-1.3093,-1.3093,-1.3141,-1.3141,-1.3142,-1.313,-1.3128,-1.3127,-1.3125,-1.3177,-1.318,-1.3183,-1.3234,0,0,-1.3194,-1.3195,0,0,0,0,0,0,0,0,-1.3035,-1.3041,-1.3092,-1.3093,-1.3094,-1.3127,-1.3125,-1.3173,-1.313,-1.3116,-1.3126,-1.3125,-1.3163,-1.3167,-1.3179,-1.3236,-1.3238,-1.3194,-1.3196,-1.3198,-1.3199,0,0,0,0,0,0,0,-1.3031,-1.3039,-1.3112,-1.3093,-1.3094,-1.3092,-1.3096,-1.3134,-1.3147,-1.3117,-1.3116,-1.3122,-1.3163,-1.3176,-1.3181,-1.3239,-1.3194,-1.3197,-1.3199,-1.32,-1.3339,-1.3341,0,0,0,0,0,0,-1.3027,-1.3036,-1.311,-1.3113,-1.306,-1.3095,-1.31,-1.3118,-1.3147,-1.3149,-1.3123,-1.3121,-1.3171,-1.3177,-1.3182,-1.3243,-1.3198,-1.3201,-1.3203,-1.3338,-1.334,-1.3342,0,0,0,0,0,0,-1.3025,-1.3034,-1.3108,-1.3074,-1.3084,-1.3098,-1.3118,-1.312,-1.3133,-1.3151,-1.3154,-1.3134,-1.317,-1.3178,-1.3221,-1.3245,-1.3202,-1.3205,-1.3336,-1.3338,-1.3341,-1.3365,0,0,0,0,0,0,-1.3022,-1.3033,-1.3052,-1.3075,-1.3086,-1.3145,-1.312,-1.3122,-1.3139,-1.3137,-1.3162,-1.3165,-1.317,-1.3216,-1.3224,-1.3249,-1.3208,-1.3334,-1.3337,-1.334,-1.3362,-1.3368,-1.3373,0,0,0,0,0,-1.3019,-1.3058,-1.3053,-1.3062,-1.3109,-1.3147,-1.3153,-1.3156,-1.3141,-1.316,-1.3172,-1.3164,-1.3241,-1.322,-1.323,-1.3256,-1.3332,-1.3336,-1.334,-1.336,-1.3367,-1.3373,0,0,0,0,0,0,-1.3038,-1.3061,-1.3056,-1.3103,-1.3123,-1.3144,-1.3169,-1.3164,-1.3189,-1.3186,-1.319,-1.3196,-1.3241,-1.3252,-1.3229,-1.3306,-1.3284,-1.329,-1.3296,-1.3303,-1.3309,-1.3305,-1.3211,0,0,0,0,0,-1.3048,-1.3075,-1.3094,-1.3134,-1.3144,-1.3155,-1.3171,-1.3172,-1.3193,-1.3202,-1.3216,-1.3238,-1.3267,-1.3286,-1.3313,-1.3364,-1.3369,-1.3386,-1.3392,-1.3396,-1.3401,-1.3429,-1.3437,-1.3354,-1.3354,-1.3354,0,0,-1.3068,-1.3084,-1.3101,-1.3138,-1.3153,-1.3183,-1.3162,-1.3194,-1.3216,-1.3207,-1.3248,-1.326,-1.3284,-1.3331,-1.3353,-1.3343,-1.3425,-1.3401,-1.3404,-1.3407,-1.3433,-1.3441,-1.3448,-1.3356,-1.3356,-1.3355,0,0,-1.312,-1.3134,-1.3169,-1.3185,-1.3208,-1.3215,-1.3224,-1.3246,-1.3253,-1.3294,-1.3288,-1.3315,-1.3365,-1.3382,-1.3398,-1.3456,-1.3451,-1.3465,-1.3494,-1.3521,-1.3527,-1.3533,-1.3554,-1.3562,-1.347,-1.347,-1.347,0,-1.3142,-1.3185,-1.3188,-1.322,-1.3237,-1.3229,-1.3265,-1.328,-1.3312,-1.3324,-1.3312,-1.3374,-1.339,-1.3441,-1.3455,-1.3468,-1.3478,-1.3462,-1.3526,-1.3532,-1.3537,-1.3557,-1.3565,-1.3472,-1.3472,-1.3471,-1.3471,0,-1.3212,-1.3242,-1.3268,-1.3297,-1.3317,-1.3351,-1.3359,-1.3378,-1.3378,-1.3386,-1.3429,-1.3448,-1.3479,-1.3491,-1.3491,-1.3542,-1.3535,-1.3525,-1.3503,-1.3547,-1.3566,-1.3574,-1.3474,-1.3474,-1.3473,-1.3473,0,0,-1.3278,-1.3308,-1.3317,-1.333,-1.3356,-1.338,-1.3413,-1.3443,-1.346,-1.3482,-1.3511,-1.3553,-1.3543,-1.3561,-1.3563,-1.3587,-1.3632,-1.3573,-1.3574,-1.3583,-1.369,-1.3698,-1.3707,-1.3628,-1.363,-1.3631,-1.3688,0,-1.3332,-1.339,-1.3393,-1.3447,-1.3475,-1.3468,-1.3497,-1.3517,-1.3525,-1.3551,-1.3561,-1.3591,-1.3576,-1.3586,-1.361,-1.3621,-1.3653,-1.3617,-1.3656,-1.3657,-1.365,-1.3716,-1.3725,-1.3778,-1.3695,-1.3697,-1.3697,0,-1.3403,-1.3426,-1.3482,-1.3503,-1.3515,-1.3541,-1.3569,-1.3593,-1.3615,-1.362,-1.3639,-1.3638,-1.3674,-1.3651,-1.37,-1.3675,-1.3691,-1.37,-1.3702,-1.3706,-1.368,-1.3722,-1.3794,-1.3802,-1.3709,-1.3708,-1.3707,0,-1.3445,-1.3491,-1.353,-1.3542,-1.3567,-1.3586,-1.3598,-1.3618,-1.3636,-1.366,-1.3672,-1.37,-1.3716,-1.3738,-1.3745,-1.3728,-1.3794,-1.3772,-1.38,-1.38,-1.3814,-1.3813,-1.389,-1.3824,-1.3824,-1.3824,-1.3824,0,-1.3505,-1.354,-1.3549,-1.3573,-1.3612,-1.3615,-1.3654,-1.3665,-1.3683,-1.3709,-1.3706,-1.3731,-1.3738,-1.3765,-1.3771,-1.3811,-1.3818,-1.3824,-1.3825,-1.3824,-1.3823,-1.3835,-1.3831,-1.3826,-1.3826,-1.3825,-1.3825,0,-1.3559,-1.3567,-1.3609,-1.3629,-1.3636,-1.3663,-1.3681,-1.3705,-1.3713,-1.3747,-1.3755,-1.3768,-1.38,-1.3809,-1.3847,-1.3851,-1.3898,-1.3896,-1.389,-1.389,-1.3917,-1.3915,-1.4005,-1.4017,-1.3943,-1.3943,-1.3944,0,-1.3597,-1.3623,-1.3646,-1.3663,-1.3676,-1.3704,-1.3721,-1.3726,-1.3745,-1.3772,-1.3792,-1.3823,-1.3848,-1.3899,-1.3912,-1.3942,-1.394,-1.3969,-1.3944,-1.3943,-1.3941,-1.3939,-1.3942,-1.3974,-1.3975,-1.3976,-1.3976,0,-1.3664,-1.3666,-1.3691,-1.3718,-1.3739,-1.376,-1.3781,-1.3795,-1.3803,-1.3825,-1.3856,-1.3875,-1.3914,-1.3945,-1.3974,-1.3987,-1.3984,-1.3984,-1.3992,-1.3991,-1.3987,-1.399,-1.3903,-1.3982,-1.3981,-1.3981,-1.3981,-1.398,-1.3711,-1.3734,-1.3754,-1.3782,-1.3798,-1.3817,-1.384,-1.3851,-1.3877,-1.3908,-1.3909,-1.3944,-1.3965,-1.4004,-1.4019,-1.4046,-1.4038,-1.4049,-1.4052,-1.4055,-1.4058,-1.3983,-1.4052,-1.4052,-1.4052,-1.4052,-1.4051,0,-1.3778,-1.379,-1.3816,-1.3844,-1.3866,-1.3859,-1.3882,-1.3901,-1.3931,-1.3951,-1.3976,-1.4012,-1.4042,-1.4058,-1.4088,-1.4107,-1.4106,-1.4115,-1.4114,-1.4117,-1.4064,-1.4054,-1.4115,-1.4115,-1.4115,-1.4115,-1.4115,-1.4115,-1.3815,-1.3853,-1.3858,-1.3904,-1.3917,-1.3949,-1.3963,-1.3981,-1.3997,-1.4037,-1.4062,-1.4071,-1.409,-1.4121,-1.4149,-1.4153,-1.4164,-1.4174,-1.4177,-1.4127,-1.412,-1.4114,-1.4105,-1.4176,-1.4176,-1.4228,-1.4228,-1.4228]},{"header":{"parameterUnit":"m.s-1","parameterCategory":1,"la1":30.2991,"la2":30.254,"lo1":-89.0895,"lo2":-89.0444,"dy":0.0017,"dx":0.0017,"nx":28,"ny":28,"refTime":"2025-04-23T03:00:00:Z","depth":0,"parameterNumber":3,"parameterNumberName":"V-component_of_WINDS"},"data":[0,0,0,0,0,0,0,0,0,0,0,0,0,0,0,0,0,0,0,0,0,0,0,0,0,0,0,0,0,0,0,0,0,0,0,0,0,0,0,0,0,0,0,0,0,0,0,0,0,0,0,0,0,0,0,0,0,0,2.7704,2.7705,0,2.7799,2.78,2.7801,2.781,2.7809,2.7808,2.7807,2.7901,2.7905,2.7908,0,0,0,0,0,0,0,0,0,0,0,0,0,2.7527,2.753,2.7704,2.7705,2.7706,2.7799,2.78,2.7801,2.781,2.7808,2.7807,2.7806,2.79,2.7904,2.7908,0,0,0,0,0,0,0,0,0,0,0,0,0,2.7611,2.7532,2.7704,2.7722,2.7724,2.7798,2.78,2.7802,2.781,2.7808,2.7807,2.7806,2.7899,2.7904,2.7909,2.7971,0,0,2.7925,2.7927,0,0,0,0,0,0,0,0,2.7606,2.7618,2.7718,2.7721,2.7724,2.7791,2.7773,2.7858,2.781,2.7777,2.7807,2.7805,2.7866,2.7873,2.7894,2.7975,2.798,2.7925,2.7928,2.7931,2.7932,0,0,0,0,0,0,0,2.7601,2.7614,2.7741,2.7719,2.7723,2.7724,2.7734,2.7789,2.7829,2.778,2.7781,2.7792,2.7867,2.7889,2.7897,2.7981,2.7925,2.793,2.7933,2.7935,2.8117,2.8118,0,0,0,0,0,0,2.7592,2.7609,2.7738,2.7744,2.766,2.7729,2.774,2.7771,2.7828,2.7835,2.7793,2.7792,2.7881,2.7891,2.79,2.7976,2.7931,2.7935,2.7938,2.8115,2.8117,2.8119,0,0,0,0,0,0,2.7588,2.7603,2.7735,2.7677,2.7694,2.7733,2.7768,2.7773,2.7796,2.7838,2.7845,2.7809,2.788,2.7893,2.7953,2.7979,2.7938,2.7942,2.8113,2.8116,2.8118,2.8128,0,0,0,0,0,0,2.7583,2.7602,2.7626,2.7677,2.7697,2.7787,2.7769,2.7776,2.7805,2.7805,2.7855,2.7862,2.788,2.7946,2.7958,2.7986,2.7947,2.8111,2.8114,2.8117,2.8126,2.8131,2.8135,0,0,0,0,0,2.7576,2.7625,2.7628,2.7643,2.7728,2.7789,2.7799,2.782,2.7807,2.7832,2.7859,2.786,2.7975,2.7952,2.7966,2.7996,2.8109,2.8113,2.8117,2.8124,2.813,2.8135,0,0,0,0,0,0,2.7575,2.7632,2.7635,2.7702,2.7741,2.779,2.7822,2.7827,2.7869,2.7866,2.789,2.7901,2.7961,2.7984,2.7958,2.8058,2.804,2.8047,2.8041,2.8047,2.8052,2.8044,2.7951,0,0,0,0,0,2.7583,2.7628,2.7675,2.7729,2.7748,2.7782,2.7809,2.7822,2.7862,2.7878,2.7909,2.7948,2.7992,2.8021,2.8064,2.813,2.814,2.8157,2.8162,2.8165,2.8171,2.8206,2.8214,2.8132,2.8132,2.8132,0,0,2.7599,2.7636,2.7662,2.773,2.7761,2.7806,2.7795,2.7843,2.7877,2.7885,2.7944,2.7968,2.8013,2.8076,2.8105,2.8097,2.8196,2.817,2.8173,2.8176,2.8211,2.8219,2.8226,2.8134,2.8134,2.8134,0,0,2.7651,2.7684,2.7732,2.7764,2.7812,2.7834,2.7845,2.7894,2.7911,2.7971,2.7978,2.8017,2.8094,2.8125,2.8151,2.8214,2.8217,2.8228,2.8252,2.8287,2.8293,2.8299,2.8321,2.8328,2.8233,2.8233,2.8233,0,2.7665,2.7734,2.7757,2.7805,2.7834,2.7844,2.7893,2.7922,2.7981,2.8001,2.7991,2.8087,2.8118,2.8188,2.8204,2.8225,2.8238,2.8222,2.8291,2.8297,2.8302,2.8323,2.8332,2.8234,2.8234,2.8234,2.8234,0,2.7748,2.7796,2.7829,2.7886,2.7919,2.7967,2.7997,2.8027,2.8037,2.806,2.812,2.8157,2.8208,2.8226,2.8236,2.8297,2.8291,2.8286,2.8268,2.8311,2.8331,2.8339,2.8236,2.8235,2.8235,2.8235,0,0,2.7801,2.7871,2.7883,2.7909,2.7962,2.7999,2.8047,2.8098,2.8123,2.8164,2.8204,2.8268,2.8264,2.8293,2.8307,2.8337,2.8384,2.8329,2.833,2.8337,2.8453,2.8456,2.8465,2.8387,2.8388,2.839,2.8449,0,2.7859,2.7946,2.7968,2.8042,2.8085,2.8096,2.8138,2.8175,2.8197,2.8237,2.8261,2.8306,2.8298,2.8315,2.8346,2.8372,2.8408,2.8368,2.8423,2.8425,2.8411,2.8476,2.8479,2.8533,2.8457,2.8459,2.846,0,2.7937,2.798,2.8059,2.8106,2.8125,2.8163,2.821,2.8249,2.829,2.8304,2.8337,2.8348,2.8398,2.8378,2.8446,2.8419,2.8443,2.8459,2.8462,2.8467,2.8444,2.8482,2.8551,2.8559,2.8473,2.8472,2.8471,0,2.7967,2.8045,2.8101,2.8123,2.818,2.8206,2.8231,2.8271,2.83,2.8342,2.836,2.8407,2.8432,2.8467,2.849,2.8474,2.8556,2.8539,2.8568,2.8568,2.8584,2.8583,2.8658,2.8601,2.8601,2.8601,2.8601,0,2.8029,2.8076,2.8116,2.815,2.8203,2.8228,2.8279,2.8304,2.834,2.8379,2.8391,2.8427,2.8455,2.8495,2.8513,2.8567,2.8578,2.859,2.8594,2.8589,2.8587,2.8604,2.86,2.8603,2.8603,2.8602,2.8602,0,2.8071,2.8099,2.8162,2.8211,2.8224,2.8261,2.8302,2.8336,2.8359,2.8408,2.8421,2.8457,2.8504,2.8531,2.859,2.8602,2.8662,2.8664,2.8648,2.8649,2.8677,2.8673,2.8764,2.8777,2.8713,2.8714,2.8714,0,2.8108,2.8144,2.8197,2.8225,2.825,2.8294,2.8324,2.8349,2.8379,2.8429,2.8457,2.8505,2.8545,2.8621,2.8651,2.8697,2.87,2.8728,2.8706,2.87,2.8699,2.8696,2.8699,2.8732,2.8732,2.8733,2.8733,0,2.8169,2.8182,2.8224,2.8272,2.8307,2.8346,2.8384,2.8405,2.8437,2.847,2.8519,2.855,2.8611,2.8659,2.8707,2.8731,2.8737,2.874,2.8749,2.8743,2.8732,2.8737,2.8657,2.8738,2.8737,2.8737,2.8737,2.8736,2.821,2.8242,2.8285,2.8332,2.8363,2.8398,2.8432,2.846,2.8502,2.8554,2.8566,2.8617,2.8658,2.8723,2.8749,2.8789,2.8783,2.8796,2.88,2.8802,2.8803,2.8726,2.8798,2.8797,2.8797,2.8797,2.8797,0,2.8271,2.8299,2.8342,2.8395,2.8432,2.8436,2.8478,2.8508,2.8553,2.8591,2.863,2.8686,2.8733,2.8767,2.8814,2.8839,2.8843,2.8851,2.8848,2.8854,2.8806,2.8793,2.8847,2.8847,2.8847,2.8847,2.8847,2.8847,2.8307,2.8363,2.838,2.8451,2.8479,2.853,2.8554,2.8586,2.8616,2.8678,2.8717,2.874,2.8776,2.8825,2.8867,2.8876,2.8893,2.89,2.8909,2.8863,2.8857,2.8852,2.884,2.8903,2.8903,2.8953,2.8954,2.8954]}]]